WetterOnline ( https://www.wetteronline.ch )

Wetter aktuell Rheinstetten

Aktuelles Wetter: Rheinstetten (116m)

6-stündlich | Neueste Meldungen
Ortszeit Temperatur Wetter
Di, 22.10. 2:00 13.1° C wolkenlos
Mo, 21.10. 20:00 13.7° C leichter Regen
Mo, 21.10. 14:00 15.6° C bedeckt
Mo, 21.10. 8:00 13.9° C bewölkt
Mo, 21.10. 2:00 13.7° C bedeckt
So, 20.10. 20:00 14.7° C wolkig
So, 20.10. 14:00 18.1° C bedeckt
So, 20.10. 8:00 12.8° C bewölkt
Ortszeit Temperatur Wetter
Di, 22.10. 4:00 12.9° C bewölkt
Di, 22.10. 3:30 12.9° C wolkig
Di, 22.10. 3:20 12.9° C wolkig
Di, 22.10. 3:10 13.0° C leicht bewölkt
Di, 22.10. 3:00 13.3° C leicht bewölkt
Di, 22.10. 2:50 13.3° C leicht bewölkt
Di, 22.10. 2:30 13.3° C fast wolkenlos
Di, 22.10. 2:00 13.1° C wolkenlos
Di, 22.10. 1:30 13.0° C leicht bewölkt
Di, 22.10. 1:00 13.0° C fast wolkenlos
Di, 22.10. 0:30 13.1° C Sprühregen
Ortszeit Relative Feuchte Sichtweite
Di, 22.10. 2:00 98% 18 km
Mo, 21.10. 20:00 92% 35 km
Mo, 21.10. 14:00 81% 65 km
Mo, 21.10. 8:00 97% 6 km
Mo, 21.10. 2:00 96% 11 km
So, 20.10. 20:00 96% 17 km
So, 20.10. 14:00 78% 45 km
So, 20.10. 8:00 98% 5.0 km
Ortszeit Relative Feuchte Sichtweite
Di, 22.10. 4:00 99% 11 km
Di, 22.10. 3:30 97% 3.0 km
Di, 22.10. 3:20 97% -
Di, 22.10. 3:10 97% -
Di, 22.10. 3:00 97% 9 km
Di, 22.10. 2:50 97% -
Di, 22.10. 2:30 97% 13 km
Di, 22.10. 2:00 98% 18 km
Di, 22.10. 1:30 97% 17 km
Di, 22.10. 1:00 97% 11 km
Di, 22.10. 0:30 97% 13 km
Ortszeit Niederschlagsmenge Niederschlagsart
Di, 22.10. 2:00 0.3 l/m2 in 6 Std. Regen
Mo, 21.10. 20:00 0.3 l/m2 in 12 Std. Regen
Mo, 21.10. 14:00 0.2 l/m2 in 6 Std. Regen
Mo, 21.10. 8:00 0.2 l/m2 in 12 Std. Regen
Mo, 21.10. 2:00 0.2 l/m2 in 6 Std. Regen
So, 20.10. 20:00 0.1 l/m2 in 12 Std. -
So, 20.10. 14:00 0.1 l/m2 in 6 Std. Regen
So, 20.10. 8:00 11 l/m2 in 12 Std. Regen
Ortszeit Niederschlagsmenge Niederschlagsart
Di, 22.10. 4:00 0.0 l/m2 in 1 Std. -
Di, 22.10. 3:30 0.0 l/m2 in 1 Std. -
Di, 22.10. 3:20 keine Meldung -
Di, 22.10. 3:10 keine Meldung -
Di, 22.10. 3:00 0.0 l/m2 in 1 Std. -
Di, 22.10. 2:50 keine Meldung -
Di, 22.10. 2:30 0.0 l/m2 in 1 Std. -
Di, 22.10. 2:00 0.1 l/m2 in 1 Std. Regen
Di, 22.10. 1:30 0.1 l/m2 in 1 Std. Schneeregen
Di, 22.10. 1:00 0.2 l/m2 in 1 Std. Regen
Di, 22.10. 0:30 0.2 l/m2 in 1 Std. -
Ortszeit Stärke Spitze Richtung
km/h Bft. km/h Grad Sektor
Di, 22.10. 2:00 2 1 9 100° O
Mo, 21.10. 20:00 6 1 20 150° SO
Mo, 21.10. 14:00 13 3 33 220° SW
Mo, 21.10. 8:00 0 0 18 - -
Mo, 21.10. 2:00 11 2 25 120° SO
So, 20.10. 20:00 4 1 14 30° NO
So, 20.10. 14:00 7 2 13 270° W
So, 20.10. 8:00 6 1 13 90° O
Ortszeit Stärke Spitze Richtung
km/h Bft. km/h Grad Sektor
Di, 22.10. 4:00 4 1 7 10° N
Di, 22.10. 3:30 4 1 7 360° N
Di, 22.10. 3:20 4 1 - 360° N
Di, 22.10. 3:10 2 1 - 100° O
Di, 22.10. 3:00 4 1 7 120° SO
Di, 22.10. 2:50 4 1 - 120° SO
Di, 22.10. 2:30 4 1 7 280° W
Di, 22.10. 2:00 2 1 7 100° O
Di, 22.10. 1:30 4 1 7 90° O
Di, 22.10. 1:00 4 1 4 90° O
Di, 22.10. 0:30 0 0 4 - -
Ortszeit Untergrenze Bedeckung Gattung
total tief tief mittel hoch
Di, 22.10. 2:00 - 0/8 0/8 - - -
Mo, 21.10. 20:00 1500 m 1/8 1/8 - - -
Mo, 21.10. 14:00 2100 m 8/8 8/8 - - -
Mo, 21.10. 8:00 1800 m 7/8 7/8 - - -
Mo, 21.10. 2:00 5700 m 8/8 8/8 - - -
So, 20.10. 20:00 5700 m 6/8 6/8 - - -
So, 20.10. 14:00 3900 m 8/8 8/8 - - -
So, 20.10. 8:00 90 m 7/8 7/8 - - -
Ortszeit Bedeckungsgrad in Achtel und Wolkenuntergrenze
Di, 22.10. 4:00 3(60m) 7(1800m)
Di, 22.10. 3:30 4(1800m) 6(3900m)
Di, 22.10. 3:20 4(1800m) 6(3900m)
Di, 22.10. 3:10 2(1800m) 4(3600m)
Di, 22.10. 3:00 1(330m) 3(1800m) 5(3600m)
Di, 22.10. 2:50 1(330m) 3(1800m)
Di, 22.10. 2:30 1(330m)
Di, 22.10. 2:00 keine Wolken
Di, 22.10. 1:30 2(1800m)
Di, 22.10. 1:00 1(2400m)
Di, 22.10. 0:30 1(300m) 3(2400m)
Ortszeit Luftdruck NN (hPa) Tendenz (hPa in 3 Std.)
Di, 22.10. 2:00 1024 + 0,3
Mo, 21.10. 20:00 1022 + 1,5
Mo, 21.10. 14:00 1020 + 2,0
Mo, 21.10. 8:00 1016 + 2,0
Mo, 21.10. 2:00 1011 + 2,0
So, 20.10. 20:00 1009 + 1,4
So, 20.10. 14:00 1007 - 0,6
So, 20.10. 8:00 1009 + 0,6
Ortszeit Luftdruck NN (hPa) Tendenz (hPa in 3 Std.)
Di, 22.10. 4:00 1023 - 0,5
Di, 22.10. 3:30 1023 - 0,6
Di, 22.10. 3:20 1023 keine Meldung
Di, 22.10. 3:10 1023 keine Meldung
Di, 22.10. 3:00 1023 - 0,1
Di, 22.10. 2:50 1023 keine Meldung
Di, 22.10. 2:30 1024 + 0,6
Di, 22.10. 2:00 1024 + 0,3
Di, 22.10. 1:30 1024 + 0,2
Di, 22.10. 1:00 1024 + 0,8
Di, 22.10. 0:30 1024 + 0,9
Ortszeit Schneehöhe (cm)
Di, 22.10. 2:00 0
Mo, 21.10. 20:00 0
Mo, 21.10. 14:00 0
Mo, 21.10. 8:00 0
Mo, 21.10. 2:00 0
So, 20.10. 20:00 0
So, 20.10. 14:00 0
So, 20.10. 8:00 0
Ortszeit Schneehöhe (cm)
Di, 22.10. 4:00 0
Di, 22.10. 3:30 0
Di, 22.10. 3:20 0
Di, 22.10. 3:10 0
Di, 22.10. 3:00 0
Di, 22.10. 2:50 0
Di, 22.10. 2:30 0
Di, 22.10. 2:00 0
Di, 22.10. 1:30 0
Di, 22.10. 1:00 0
Di, 22.10. 0:30 0
Link zu dieser Seite / Seite empfehlen

Das Wetter in ...